STARLINK-35224, 65811

Orbit data source: Space-Track

STARLINK-35224, 65811 is a payload satellite owned by SpaceX/Seattle (US) in SSO that was launched on Fri, 26 Sep 2025 UTC via an FALCON 9 launch vehicle from the Air Force Western Test Range (AFWTR). Payload-class satellites include a variety of spacecraft equipped with specific instruments for various scientific and technological missions. These include communications satellites like Starlink; space stations such as the ISS; scientific satellites like the Hubble; Earth observation satellites from companies like Planet Labs, Umbra, and HawkEye 360; GPS; miniature CubeSats for education and research; and military/defense satellites.

Loading next visibility...
Identifier
65811, 2025-218W
Orbit
SSO
Country
Flag of USUS
Related business
Manufacturer
SpaceX/Seattle
Mission
Operational Commercial Communications
Bus & Motor
STARLINK V2MO, Unknown motor
Mass
575 kg wet, ~530 kg dry
Launch date (UTC)
2025-09-26 (2 months ago)
Launch vehicle
FALCON 9
Launch site
Air Force Western Test Range (AFWTR)
Object type
Payload
Rocket body
Debris
Shape & HBR
Box + 2 Pan, 17.7 m
Radar Cross Section
36.964 m²

Expand to show TLE details & history
Last TLE update: 16 hours ago

TLE from 16 hours ago
0 STARLINK-35224
1 65811U 25218W   25340.59200435  .00013169  00000-0  91503-3 0  9992
2 65811  97.6016 201.2252 0002015  86.1695 273.9762 15.05655990 10966
Epoch: 2025-12-06T14:12Z
TLE epoch observation values (Epoch: 2025-12-06T14:12:29.175Z)
Latitude
-0.00006°
Longitude
-87.51389°
Altitude
552.461 km
Speed
7.586 km/s
True Right ascension
13h 24m 54s
True Declination
0° 00' 00"
Sunlit
Object was in daylight at epoch
Visualization orbit readout
Latitude
Unknown
Longitude
Unknown
Altitude
Unknown
Speed
Unknown
Apparent Right ascension
Unknown
Apparent Declination
Unknown
Sunlit
N/A
Visualization observer readout
Local Sidereal Time
04:00:59
Azimuth
Unknown
Elevation
Unknown
Doppler factor
Unknown
Orbital elements
Apogee altitude
547.882 km
Perigee altitude
545.091 km
Semi-major axis
6,924.623 km
Eccentricity
0.0002
Inclination
97.6016°
RAAN
201.2252°
Arg. of periapsis
86.1695°
True anomaly
273.95316°
Mean anomaly
273.9762°
Eccentric anomaly
273.96468°
Mean motion
3.7666 °/min
Orbital period
95.58 mins
BSTAR
0.00091503
Loading maneuver chart data...
Computing Atmospheric mass density...
Loading historical data...
Loading historical data...
Loading historical data...
Loading historical data...
Loading historical data...
Loading historical data...
Loading historical data...

Documentation

Showing up to 5 results
|